| time (UTC) | temp F | wind direction | speed MPH | gust MPH | rain 1hr in | rain 24hr in | rain mn in | humidity % | barometer mb |
| 20260504081413 | 64 | 16.0 | 16.0 | 0.00 | 0.00 | 0.00 | 41 | 1016.6 | |
| 20260504080408 | 64 | 15.0 | 16.0 | 0.00 | 0.00 | 0.00 | 42 | 1016.7 | |
| 20260504070338 | 62 | 15.0 | 17.0 | 0.00 | 0.00 | 0.00 | 47 | 1016.3 | |
| 20260504050238 | 52 | 15.0 | 17.0 | 0.00 | 0.00 | 0.00 | 76 | 1016.3 | |
| 20260504045233 | 52 | 15.0 | 16.0 | 0.00 | 0.00 | 0.00 | 75 | 1016.4 | |
| 20260504044227 | 54 | 15.0 | 16.0 | 0.00 | 0.00 | 0.00 | 69 | 1016.4 | |
| 20260504043223 | 55 | 15.0 | 17.0 | 0.00 | 0.00 | 0.00 | 68 | 1016.4 | |
| 20260504042218 | 50 | 15.0 | 16.0 | 0.00 | 0.00 | 0.00 | 80 | 1016.5 | |
| 20260504041213 | 49 | 15.0 | 17.0 | 0.00 | 0.00 | 0.00 | 84 | 1016.5 | |
| 20260504040207 | 49 | 16.0 | 16.0 | 0.00 | 0.00 | 0.00 | 85 | 1016.6 | |
| 20260504035202 | 49 | 15.0 | 16.0 | 0.00 | 0.00 | 0.00 | 83 | 1016.6 | |
| 20260504034159 | 49 | 15.0 | 17.0 | 0.00 | 0.00 | 0.00 | 83 | 1016.8 | |
| 20260504033154 | 49 | 15.0 | 15.0 | 0.00 | 0.00 | 0.00 | 82 | 1016.8 | |
| 20260504032148 | 49 | 15.0 | 16.0 | 0.00 | 0.00 | 0.00 | 81 | 1016.8 | |
| 20260504031144 | 49 | 15.0 | 16.0 | 0.00 | 0.00 | 0.00 | 82 | 1016.8 | |
| 20260504030139 | 49 | 16.0 | 16.0 | 0.00 | 0.00 | 0.00 | 81 | 1016.7 | |
| 20260504025134 | 49 | 15.0 | 17.0 | 0.00 | 0.00 | 0.00 | 82 | 1016.7 | |
| 20260504024128 | 48 | 15.0 | 16.0 | 0.00 | 0.00 | 0.00 | 81 | 1016.7 | |
| 20260504023123 | 49 | 16.0 | 17.0 | 0.00 | 0.00 | 0.00 | 80 | 1016.8 | |
| 20260504022118 | 49 | 16.0 | 16.0 | 0.00 | 0.00 | 0.00 | 80 | 1016.9 | |
| 20260504021114 | 50 | 15.0 | 16.0 | 0.00 | 0.00 | 0.00 | 80 | 1016.8 | |
| 20260504020110 | 50 | 15.0 | 16.0 | 0.00 | 0.00 | 0.00 | 77 | 1016.8 | |
| 20260504015104 | 50 | 15.0 | 15.0 | 0.00 | 0.00 | 0.00 | 77 | 1016.9 | |
| 20260504014100 | 50 | 15.0 | 17.0 | 0.00 | 0.00 | 0.00 | 77 | 1016.9 | |
| 20260504013055 | 50 | 16.0 | 17.0 | 0.00 | 0.00 | 0.00 | 78 | 1016.8 | |
| 20260504012050 | 50 | 15.0 | 17.0 | 0.00 | 0.00 | 0.00 | 78 | 1017.0 | |
| 20260504011045 | 50 | 15.0 | 16.0 | 0.00 | 0.00 | 0.00 | 78 | 1016.9 | |
| 20260504010041 | 50 | 15.0 | 16.0 | 0.00 | 0.00 | 0.00 | 78 | 1017.0 | |
| 20260504005036 | 51 | 15.0 | 17.0 | 0.00 | 0.00 | 0.00 | 77 | 1017.0 | |
| 20260504004032 | 51 | 15.0 | 16.0 | 0.00 | 0.00 | 0.00 | 74 | 1017.1 | |
| 20260504003028 | 51 | 15.0 | 16.0 | 0.00 | 0.00 | 0.00 | 76 | 1017.0 | |
| 20260504002022 | 50 | 15.0 | 16.0 | 0.00 | 0.00 | 0.00 | 79 | 1017.1 | |
| 20260504001018 | 50 | 15.0 | 17.0 | 0.00 | 0.00 | 0.00 | 79 | 1017.2 | |
| 20260504000013 | 50 | 16.0 | 17.0 | 0.00 | 0.00 | 0.00 | 77 | 1017.0 | |
| 20260503235008 | 51 | 15.0 | 16.0 | 0.00 | 0.00 | 0.00 | 77 | 1017.1 | |
| 20260503234002 | 51 | 15.0 | 16.0 | 0.00 | 0.00 | 0.00 | 75 | 1017.1 | |
| 20260503232957 | 52 | 15.0 | 16.0 | 0.00 | 0.00 | 0.00 | 75 | 1017.1 | |
| 20260503231953 | 52 | 15.0 | 16.0 | 0.00 | 0.00 | 0.00 | 74 | 1017.2 | |
| 20260503230949 | 51 | 15.0 | 16.0 | 0.00 | 0.00 | 0.00 | 74 | 1017.1 | |
| 20260503225943 | 51 | 15.0 | 17.0 | 0.00 | 0.00 | 0.00 | 74 | 1017.1 | |
| 20260503224938 | 52 | 15.0 | 17.0 | 0.00 | 0.00 | 0.00 | 72 | 1017.2 | |
| 20260503223933 | 53 | 15.0 | 16.0 | 0.00 | 0.00 | 0.00 | 71 | 1017.1 | |
| 20260503222929 | 53 | 16.0 | 16.0 | 0.00 | 0.00 | 0.00 | 68 | 1017.1 | |
| 20260503221923 | 54 | 15.0 | 17.0 | 0.00 | 0.00 | 0.00 | 67 | 1017.0 | |
| 20260503220918 | 54 | 15.0 | 17.0 | 0.00 | 0.00 | 0.00 | 68 | 1017.0 | |
| 20260503215914 | 53 | 15.0 | 16.0 | 0.00 | 0.00 | 0.00 | 70 | 1016.9 | |
| 20260503214909 | 53 | 15.0 | 16.0 | 0.00 | 0.00 | 0.00 | 71 | 1016.9 | |
| 20260503213903 | 53 | 15.0 | 16.0 | 0.00 | 0.00 | 0.00 | 69 | 1017.0 | |
| 20260503212858 | 53 | 15.0 | 16.0 | 0.00 | 0.00 | 0.00 | 68 | 1016.9 | |
| 20260503211855 | 53 | 15.0 | 17.0 | 0.00 | 0.00 | 0.00 | 68 | 1016.8 | |
| 20260503210849 | 54 | 15.0 | 16.0 | 0.00 | 0.00 | 0.00 | 67 | 1016.8 | |
| 20260503205843 | 54 | 15.0 | 16.0 | 0.00 | 0.00 | 0.00 | 64 | 1016.9 | |
| 20260503204838 | 54 | 15.0 | 16.0 | 0.00 | 0.00 | 0.00 | 63 | 1016.9 | |
| 20260503203834 | 55 | 15.0 | 16.0 | 0.00 | 0.00 | 0.00 | 65 | 1016.9 | |
| 20260503202829 | 54 | 16.0 | 16.0 | 0.00 | 0.00 | 0.00 | 66 | 1016.9 | |
| 20260503201823 | 54 | 15.0 | 16.0 | 0.00 | 0.00 | 0.00 | 63 | 1016.9 | |
| 20260503200819 | 54 | 15.0 | 15.0 | 0.00 | 0.00 | 0.00 | 62 | 1017.0 | |
| 20260503195814 | 54 | 15.0 | 18.0 | 0.00 | 0.00 | 0.00 | 62 | 1017.0 | |
| 20260503194809 | 54 | 15.0 | 16.0 | 0.00 | 0.00 | 0.00 | 60 | 1016.9 | |
| 20260503193803 | 54 | 15.0 | 16.0 | 0.00 | 0.00 | 0.00 | 60 | 1016.8 | |
| 20260503192758 | 54 | 15.0 | 16.0 | 0.00 | 0.00 | 0.00 | 59 | 1016.8 | |
| 20260503191753 | 54 | 15.0 | 17.0 | 0.00 | 0.00 | 0.00 | 58 | 1016.6 | |
| 20260503190748 | 54 | 15.0 | 15.0 | 0.00 | 0.00 | 0.00 | 57 | 1016.7 | |
| 20260503185742 | 54 | 15.0 | 17.0 | 0.00 | 0.00 | 0.00 | 55 | 1016.6 | |
| 20260503184737 | 54 | 15.0 | 16.0 | 0.00 | 0.00 | 0.00 | 55 | 1016.6 | |
| 20260503183733 | 54 | 15.0 | 17.0 | 0.00 | 0.00 | 0.00 | 54 | 1016.6 | |
| 20260503182728 | 55 | 15.0 | 16.0 | 0.00 | 0.00 | 0.00 | 53 | 1016.6 | |
| 20260503181722 | 55 | 16.0 | 17.0 | 0.00 | 0.00 | 0.00 | 52 | 1016.7 | |
| 20260503180718 | 55 | 15.0 | 15.0 | 0.00 | 0.00 | 0.00 | 52 | 1016.7 | |
| 20260503175712 | 55 | 15.0 | 15.0 | 0.00 | 0.00 | 0.00 | 52 | 1016.7 | |
| 20260503174708 | 56 | 15.0 | 18.0 | 0.00 | 0.00 | 0.00 | 52 | 1016.7 | |
| 20260503173702 | 56 | 15.0 | 16.0 | 0.00 | 0.00 | 0.00 | 52 | 1016.8 | |
| 20260503172658 | 57 | 15.0 | 16.0 | 0.00 | 0.00 | 0.00 | 50 | 1016.9 | |
| 20260503171653 | 57 | 15.0 | 15.0 | 0.00 | 0.00 | 0.00 | 49 | 1017.0 | |
| 20260503170648 | 57 | 15.0 | 16.0 | 0.00 | 0.00 | 0.00 | 50 | 1017.1 | |
| 20260503150546 | 67 | 16.0 | 16.0 | 0.00 | 0.00 | 0.00 | 33 | 1016.5 | |
| 20260503130444 | 74 | 15.0 | 16.0 | 0.00 | 0.00 | 0.00 | 35 | 1016.6 | |
| 20260503110346 | 73 | 15.0 | 15.0 | 0.00 | 0.00 | 0.00 | 33 | 1017.5 |